#timestamp,LO_Frequency,Hit,StdDev 
1521306015.4,286046998.1,N
1521306035.2,286046998.6,N
1521306055.1,286046999.1,N
1521306056.0,286046999.1,N
1521306075.8,286046999.3,N
1521306095.6,286046997.7,N
1521306115.5,286046994.9,Y
1521306135.3,286046996.6,P
1521306155.2,286046998.3,N
1521306175.9,286046997.1,N
1521306195.7,286046996.6,Y
1521306215.6,286046998.5,P
1521306235.4,286046996.5,P
1521306255.2,286046997.4,P
1521306275.1,286046997.6,Y
1521306276.0,286046997.6,P
1521306295.8,286047000.6,P
1521306315.7,286046998.2,N
1521306335.5,286046998.3,N
1521306355.3,286047000.3,N
1521306375.2,286046999.9,N
1521306395.0,286047001.0,N
1521306395.9,286047001.0,N
1521306415.8,286046998.8,N
1521306435.6,286046999.2,N
1521306455.4,286046998.6,N
1521306475.3,286047000.5,N
1521306495.1,286047000.5,N
1521306515.8,286046999.8,N
1521306535.7,286047000.4,N
1521306555.5,286047001.2,N
1521306575.3,286047000.6,N
1521306595.2,286047001.2,N
1521306615.0,286046998.3,N
1521306615.9,286046998.3,N
1521306635.8,286046998.3,N
1521306655.6,286046999.3,N
1521306675.4,286046998.9,N
1521306695.3,286046996.9,N
1521306715.1,286046996.6,N
1521306735.9,286046998.9,N
1521306755.7,286047001.1,N
1521306775.5,286047000.3,N
1521306795.4,286046998.8,N
1521306815.2,286046999.6,N
1521306835.0,286046999.3,N
1521306835.9,286046999.3,N
1521306855.8,286047000.8,N
1521306875.6,286047000.4,N
1521306895.5,286047000.0,N
1521306915.3,286046998.3,N
1521306935.1,286046998.7,N
1521306955.9,286047000.8,N
1521306975.7,286047001.0,N
1521306995.5,286046999.3,N
1521307015.4,286046998.7,N
1521307035.2,286046999.6,N
1521307055.1,286046999.4,N
1521307056.0,286046999.4,N
1521307075.8,286046998.8,N
1521307095.6,286047001.0,N
1521307115.5,286046999.8,N
1521307135.3,286047000.2,N
1521307155.1,286047000.1,N
1521307175.9,286047000.0,N
1521307195.7,286047000.5,N
1521307215.6,286047000.4,N
1521307235.4,286047002.2,N
1521307255.2,286047002.1,N
1521307275.1,286047001.4,N
1521307276.0,286047001.4,N
1521307295.8,286047004.4,Y
1521307315.7,286047001.7,P
1521307335.5,286047003.9,P
1521307355.3,286047004.2,N
1521307375.2,286047001.7,N
1521307395.0,286047002.5,N
1521307395.9,286047002.5,N
1521307415.7,286047002.2,N
1521307435.6,286047001.5,N
1521307455.4,286047001.9,N
1521307475.3,286047001.4,N
1521307495.1,286047003.9,Y
1521307515.8,286047002.6,P
1521307535.7,286047002.3,P
1521307555.5,286047000.2,N
1521307575.4,286047000.4,N
1521307595.2,286047001.1,N
1521307615.0,286046998.7,N
1521307615.9,286046998.7,N
1521307635.8,286047000.1,N
1521307655.6,286047001.0,N
1521307675.4,286047000.6,N
1521307695.3,286047000.7,N
1521307715.1,286047002.4,N
1521307735.9,286047000.2,N
1521307755.7,286047000.8,N
1521307775.6,286047002.7,N
1521307795.4,286047004.0,Y
1521307815.2,286047001.3,P
1521307835.1,286047001.6,P
1521307836.0,286047001.6,P
1521307855.8,286047001.6,Y
1521307875.7,286047001.5,P
1521307895.5,286047000.3,P
1521307915.3,286047000.7,N
1521307935.2,286046998.5,Y
1521307955.0,286046998.2,P
1521307955.9,286046998.2,N
1521307975.8,286047000.9,N
1521307995.6,286047002.4,N
1521308015.4,286047000.4,N
1521308035.3,286047000.6,N
1521308055.1,286046998.3,N
1521308075.9,286046999.5,N
1521308095.7,286046999.0,N
1521308115.5,286046998.5,N
1521308135.4,286047000.1,N
1521308155.2,286047000.2,N
1521308175.1,286047004.4,Y
1521308176.0,286047004.4,P
1521308195.8,286047003.5,N
1521308215.6,286047003.6,N
1521308235.5,286047002.4,N
1521308255.3,286047002.7,N
1521308275.2,286047001.6,N
1521308295.9,286046999.7,N
1521308315.7,286047000.2,N
1521308335.6,286047001.0,N
1521308355.4,286046998.4,N
1521308375.2,286047001.1,N
1521308395.1,286046998.7,N
1521308396.0,286046998.7,N
1521308415.8,286046999.2,N
1521308435.7,286046997.1,N
1521308455.5,286046997.8,N
1521308475.4,286046997.2,N
1521308495.2,286046997.4,N
1521308515.0,286046999.4,N
1521308515.9,286046999.4,N
1521308535.8,286046999.3,N
1521308555.6,286046999.2,N
1521308575.4,286046999.1,N
1521308595.3,286046996.7,N
1521308615.1,286046999.2,N
1521308635.9,286046996.6,N
1521308655.7,286046998.1,N
1521308675.5,286046999.0,N
1521308695.4,286046996.5,N
1521308715.2,286046998.4,N
1521308735.0,286047001.0,N
1521308736.0,286047001.0,N
1521308755.8,286046999.9,N
1521308775.6,286046999.7,N
1521308795.5,286047001.6,N
1521308815.3,286047002.7,N
1521308835.1,286047000.0,N
1521308855.9,286047000.6,N
1521308875.7,286047001.0,N
1521308895.6,286047000.7,N
1521308915.4,286047000.2,N
1521308935.2,286047000.6,N
1521308955.1,286047000.7,N
1521308956.0,286047000.7,N
1521308975.8,286047000.5,N
1521308995.7,286047000.2,N
1521309015.5,286047002.6,N
1521309035.3,286047002.3,N
1521309055.2,286047002.1,N
1521309075.0,286047001.7,N
1521309075.9,286047001.7,N
1521309095.7,286047000.5,N
1521309115.6,286047000.5,N
1521309135.4,286047001.1,N
1521309155.3,286046998.6,N
1521309175.1,286046998.4,N
1521309176.0,286046998.4,N
1521309195.8,286046998.8,N
1521309215.7,286046998.6,N
1521309235.5,286046999.1,N
1521309255.4,286046996.5,N
1521309275.2,286046999.3,N
1521309295.0,286046997.0,N
1521309295.9,286046997.0,N
1521309315.8,286046998.4,N
1521309335.6,286046999.4,N
1521309355.5,286047000.8,N
1521309375.3,286046998.4,N
1521309395.1,286047000.7,N
1521309415.9,286046998.2,N
1521309435.7,286047001.2,N
1521309455.6,286047000.0,N
1521309475.4,286046998.5,N
1521309495.2,286047002.4,N
1521309515.1,286047001.8,N
1521309516.0,286047001.8,N
1521309535.8,286047003.9,N
1521309555.6,286047000.0,N
1521309575.5,286047001.0,N
1521309595.3,286047000.0,N
